Weather History for White Rock, BC

Change the Weather History Date:

Saturday, December 8, 2012

  Actual Average Record
Temperature  
Mean Temperature 37 °F -  
Max Temperature 41 °F - - ()
Min Temperature 33 °F - - ()
Degree Days  
Heating Degree Days 28    
Moisture  
Dew Point 32 °F    
Average Humidity 83    
Maximum Humidity 90    
Minimum Humidity 72    
Precipitation  
Precipitation 0.00 in - - ()
Sea Level Pressure  
Sea Level Pressure 30.26 in    
Wind  
Wind Speed 2 mph ()    
Max Wind Speed 5 mph    
Max Gust Speed -    
T = Trace of Precipitation, MM = Missing Value Source: Averaged Metar Reports

Daily Weather History Graph

Daily Weather History Graph

Search for Another Location

Airport:

Trip Planner

Search our weather history database for the weather conditions in past years. The results will help you decide how hot, cold, wet, or windy it might be!

Date:

Astronomy

Dec. 08, 2012 Rise Set
Actual Time 7:52 AM PST 4:13 PM PST
Civil Twilight 7:15 AM PST 4:50 PM PST
Nautical Twilight 6:35 AM PST 5:31 PM PST
Astronomical Twilight 5:56 AM PST 6:09 PM PST
Moon 2:01 AM PST (12/8) 1:06 PM PST (12/8)
Length of Visible Light 9h 35m
Length of Day
8h 20m
Waning Crescent, 27% of the Moon is Illuminated
Dec 8
Waning Crescent
Dec 13
New
Dec 19
First Quarter
Dec 28
Full
Jan 4
Last Quarter

Hourly Weather History & Observations

Time (PST) Temp. Windchill Dew Point Humidity Pressure Visibility Wind Dir Wind Speed Gust Speed Precip Events Conditions
12:00 AM 37.0 °F - 31.3 °F 80% 30.13 in - ENE 1.2 mph - N/A   Unknown
1:00 AM 36.1 °F - 32.0 °F 85% 30.14 in - Calm Calm - N/A   Unknown
2:00 AM 35.8 °F 33.0 °F 32.0 °F 86% 30.15 in - NNE 3.5 mph - N/A   Unknown
3:00 AM 34.7 °F - 31.6 °F 89% 30.16 in - Calm Calm - N/A   Unknown
4:00 AM 34 °F - 31 °F 84% 30.16 in - NE 2.3 mph - -  
4:00 AM 33.8 °F - 30.9 °F 89% 30.16 in - NE 2.3 mph - N/A   Unknown
5:00 AM 33.8 °F - 30.9 °F 89% 30.17 in - ENE 2.3 mph - N/A   Unknown
6:00 AM 33.8 °F 30.8 °F 31.1 °F 90% 30.19 in - North 3.5 mph - N/A   Unknown
7:00 AM 33.6 °F 30.6 °F 30.9 °F 90% 30.20 in - North 3.5 mph - N/A   Unknown
8:00 AM 34.0 °F 29.8 °F 31.3 °F 90% 30.22 in - North 4.6 mph - N/A   Unknown
9:00 AM 34.3 °F 31.4 °F 31.5 °F 89% 30.24 in - NNE 3.5 mph - N/A   Unknown
10:00 AM 36 °F - 33 °F 84% 30.27 in - NNE 3.5 mph - -  
10:00 AM 36.3 °F 33.7 °F 32.9 °F 87% 30.27 in - NNE 3.5 mph - N/A   Unknown
11:00 AM 40.3 °F - 33.4 °F 77% 30.28 in - NNE 2.3 mph - N/A   Unknown
12:00 PM 40.1 °F - 33.4 °F 77% 30.28 in - North 2.3 mph - N/A   Unknown
1:00 PM 40.3 °F - 34.2 °F 79% 30.27 in - NE 2.3 mph - N/A   Unknown
2:00 PM 40.6 °F - 33.6 °F 76% 30.29 in - East 2.3 mph - N/A   Unknown
3:00 PM 40.1 °F - 33.4 °F 77% 30.30 in - ENE 2.3 mph - N/A   Unknown
4:00 PM 39 °F - 33 °F 72% 30.32 in - ENE 1.2 mph - -  
4:00 PM 39.0 °F - 33.1 °F 79% 30.32 in - ENE 1.2 mph - N/A   Unknown
5:00 PM 38.1 °F - 33.6 °F 84% 30.32 in - NNE 1.2 mph - N/A   Unknown
6:00 PM 37.8 °F - 33.4 °F 84% 30.33 in - NE 1.2 mph - N/A   Unknown
7:00 PM 37.4 °F - 31.3 °F 79% 30.35 in - NNE 2.3 mph - N/A   Unknown
8:00 PM 37.0 °F - 31.5 °F 80% 30.36 in - NNE 2.3 mph - N/A   Unknown
10:00 PM 37 °F - 32 °F 75% 30.38 in - NE 2.3 mph - -  
10:00 PM 37.0 °F - 32.0 °F 82% 30.38 in - NE 2.3 mph - N/A   Unknown
11:00 PM 36.5 °F 33.9 °F 31.5 °F 82% 30.38 in - NE 3.5 mph - N/A   Unknown